Home > Weather > Portsmouth > Past weeks

Flag for USA Past Weather in Portsmouth, Virginia, USA — Yesterday and Last 2 Weeks

Now
71 °F

Clear.


Feels Like: 75 °F
Forecast: 64 / 85 °F
Wind: 7 mph from Southwest

Location: Norfolk Naval Air Station

Current Time: May 26, 2016 at 3:09:13 AM

Latest Report: May 26, 2016 at 1:59 AM


Visibility: 10 mi

Pressure: 30.16 "Hg

Humidity: 68%

Dew Point: 60 °F

Location of PortsmouthLocation

Past Weather in Portsmouth — Graph

°F

Portsmouth Temperature Yesterday

Maximum temperature yesterday: 87 °F (at 2:59 PM)
Minimum temperature yesterday: 66 °F (at 5:59 AM)
Average temperature yesterday: 76 °F

High & Low Weather Summary for the Past Weeks

 TemperatureHumidityPressure
High87 °F (May 25, 2:59 PM)100% (May 11, 3:56 AM)30.28 "Hg (May 11, 3:56 AM)
Low45 °F (May 16, 5:59 AM)29% (May 15, 5:59 PM)29.70 "Hg (May 14, 4:59 PM)
Average64 °F73%30.04 "Hg
* Reported May 11 1:59 AM — May 26 1:59 AM, Portsmouth, Weather by CustomWeather, © 2016

Note: Actual official high and low records may vary slightly from our data, if they occured in-between our weather recording intervals... More about our weather records

Advertising

Portsmouth Weather History for the Previous 24 Hours

Scroll right to see more
 ConditionsComfort  
Time TempWeatherWind HumidityBarometerVisibility
1:59 AM
Thu, May 26
71 °FClear.7 mph68%30.16 "Hg10 mi
12:59 AM73 °FPassing clouds.9 mph64%30.16 "Hg10 mi
11:59 PM
Wed, May 25
73 °FPassing clouds.8 mph64%30.16 "Hg10 mi
10:59 PM69 °FClear.6 mph73%30.15 "Hg9 mi
9:59 PM71 °FPassing clouds.No wind68%30.15 "Hg10 mi
8:59 PM74 °FPassing clouds.No wind57%30.14 "Hg10 mi
7:59 PM81 °FPassing clouds.No wind41%30.12 "Hg10 mi
6:59 PM85 °FPassing clouds.6 mph35%30.13 "Hg10 mi
5:59 PM86 °FScattered clouds.6 mph40%30.14 "Hg10 mi
4:59 PM86 °FScattered clouds.7 mph35%30.14 "Hg10 mi
3:59 PM86 °FScattered clouds.7 mph36%30.15 "Hg10 mi
2:59 PM87 °FScattered clouds.8 mph32%30.16 "Hg10 mi
1:59 PM86 °FScattered clouds.5 mph36%30.17 "Hg9 mi
12:59 PM85 °FScattered clouds.5 mph32%30.17 "Hg10 mi
11:59 AM82 °FScattered clouds.5 mph40%30.19 "Hg10 mi
10:59 AM78 °FScattered clouds.5 mph52%30.19 "Hg9 mi
9:59 AM74 °FPassing clouds.6 mph57%30.20 "Hg9 mi
8:59 AM71 °FPassing clouds.9 mph63%30.19 "Hg9 mi
7:59 AM70 °FPassing clouds.8 mph64%30.19 "Hg9 mi
6:59 AM67 °FPassing clouds.6 mph71%30.16 "Hg9 mi
5:59 AM66 °FPassing clouds.8 mph70%30.14 "Hg9 mi
4:59 AM68 °FPassing clouds.7 mph65%30.14 "Hg10 mi
3:59 AM67 °FPassing clouds.7 mph68%30.13 "Hg10 mi
Weather by CustomWeather, © 2016

See weather overviewHow to use our weather pages